Weather History for Budapest Ferihegy, Hungary

Change the Weather History Date:

Sunday, April 14, 2013

  Actual Average Record
Temperature  
Mean Temperature 48 °F -  
Max Temperature 62 °F 64 °F 75 °F (2007)
Min Temperature 33 °F 43 °F 23 °F (1997)
Degree Days  
Heating Degree Days 18    
Moisture  
Dew Point 37 °F    
Average Humidity 65    
Maximum Humidity 100    
Minimum Humidity 32    
Precipitation  
Precipitation 0.00 in - - ()
Sea Level Pressure  
Sea Level Pressure 30.30 in    
Wind  
Wind Speed 6 mph ()    
Max Wind Speed 16 mph    
Max Gust Speed -    
Visibility 6.2 miles    
Events      
Averages and records for this station are not official NWS values.
T = Trace of Precipitation, MM = Missing Value Source: Averaged Metar Reports

Daily Weather History Graph

Daily Weather History Graph

Search for Another Location

Airport:

Trip Planner

Search our weather history database for the weather conditions in past years. The results will help you decide how hot, cold, wet, or windy it might be!

Date:

Astronomy

Apr. 14, 2013 Rise Set
Actual Time 5:56 AM CEST 7:30 PM CEST
Civil Twilight 5:24 AM CEST 8:03 PM CEST
Nautical Twilight 4:45 AM CEST 8:42 PM CEST
Astronomical Twilight 4:03 AM CEST 9:25 PM CEST
Moon 8:07 AM CEST (4/14) 11:42 PM CEST (4/14)
Length of Visible Light 14h 38m
Length of Day
13h 34m
Waxing Crescent, 15% of the Moon is Illuminated
Apr 14
Waxing Crescent
Apr 18
First Quarter
Apr 25
Full
May 2
Last Quarter
May 10
New

Hourly Weather History & Observations

Time (CEST) Temp. Windchill Dew Point Humidity Pressure Visibility Wind Dir Wind Speed Gust Speed Precip Events Conditions
12:00 AM 44.6 °F 42.2 °F 42.8 °F 93% 30.24 in - West 4.6 mph - N/A   Clear
12:30 AM 41.0 °F 38.0 °F 39.2 °F 93% 30.24 in - ESE 4.6 mph - N/A   Clear
1:00 AM 41.0 °F - 39.2 °F 93% 30.24 in - Variable 2.3 mph - N/A   Clear
1:30 AM 42.8 °F 41.1 °F 41.0 °F 93% 30.24 in - Variable 3.5 mph - N/A   Clear
2:00 AM 37.4 °F 34.9 °F 35.6 °F 93% 30.24 in - Variable 3.5 mph - N/A   Clear
2:30 AM 37.4 °F - 37.4 °F 100% 30.27 in - Variable 2.3 mph - N/A   Clear
3:00 AM 37.4 °F - 37.4 °F 100% 30.27 in - Variable 2.3 mph - N/A   Clear
3:30 AM 37.4 °F - 37.4 °F 100% 30.27 in - Variable 1.2 mph - N/A   Clear
4:00 AM 33.8 °F - 33.8 °F 100% 30.27 in - Variable 2.3 mph - N/A   Clear
4:30 AM 37.4 °F - 37.4 °F 100% 30.27 in - Variable 2.3 mph - N/A   Clear
5:00 AM 35.6 °F 31.7 °F 33.8 °F 93% 30.27 in - NW 4.6 mph - N/A   Clear
5:30 AM 33.8 °F - 33.8 °F 100% 30.27 in - Variable 2.3 mph - N/A   Clear
6:00 AM 35.6 °F - 35.6 °F 100% 30.30 in - Variable 1.2 mph - N/A   Clear
6:30 AM 35.6 °F - 35.6 °F 100% 30.30 in - Variable 2.3 mph - N/A   Clear
7:00 AM 37.4 °F - 37.4 °F 100% 30.30 in - Variable 1.2 mph - N/A   Clear
7:30 AM 42.8 °F - 42.8 °F 100% 30.30 in - Variable 1.2 mph - N/A   Clear
8:00 AM 50.0 °F - 46.4 °F 87% 30.33 in - Variable 2.3 mph - N/A   Clear
8:30 AM 51.8 °F - 42.8 °F 71% 30.33 in - WNW 6.9 mph - N/A   Clear
9:00 AM 55.4 °F - 42.8 °F 63% 30.33 in - WNW 8.1 mph - N/A   Clear
9:30 AM 57.2 °F - 41.0 °F 55% 30.33 in - NW 12.7 mph - N/A   Clear
10:00 AM 59.0 °F - 39.2 °F 48% 30.33 in - WNW 11.5 mph - N/A   Clear
10:30 AM 59.0 °F - 39.2 °F 48% 30.33 in 6.2 mi NW 12.7 mph - N/A   Partly Cloudy
11:00 AM 60.8 °F - 41.0 °F 48% 30.33 in 6.2 mi WNW 13.8 mph - N/A   Scattered Clouds
11:30 AM 60.8 °F - 41.0 °F 48% 30.33 in 6.2 mi NW 12.7 mph - N/A   Scattered Clouds
12:00 PM 62.6 °F - 39.2 °F 42% 30.33 in - WNW 13.8 mph - N/A   Clear
12:30 PM 62.6 °F - 35.6 °F 37% 30.33 in - NW 15.0 mph - N/A   Clear
1:00 PM 60.8 °F - 35.6 °F 39% 30.33 in - NW 10.4 mph - N/A   Clear
1:30 PM 60.8 °F - 32.0 °F 34% 30.33 in - WNW 10.4 mph - N/A   Clear
2:00 PM 60.8 °F - 32.0 °F 34% 30.33 in - WNW 13.8 mph - N/A   Clear
2:30 PM 62.6 °F - 32.0 °F 32% 30.30 in - West 16.1 mph - N/A   Clear
3:00 PM 62.6 °F - 32.0 °F 32% 30.30 in - WNW 13.8 mph - N/A   Clear
3:30 PM 62.6 °F - 33.8 °F 34% 30.30 in - NW 15.0 mph - N/A   Clear
4:00 PM 62.6 °F - 35.6 °F 37% 30.30 in - NW 12.7 mph - N/A   Clear
4:30 PM 62.6 °F - 33.8 °F 34% 30.30 in - NW 11.5 mph - N/A   Clear
5:00 PM 62.6 °F - 33.8 °F 34% 30.30 in - WNW 12.7 mph - N/A   Clear
5:30 PM 62.6 °F - 32.0 °F 32% 30.30 in - NW 12.7 mph - N/A   Clear
6:00 PM 60.8 °F - 32.0 °F 34% 30.30 in - NNW 13.8 mph - N/A   Clear
6:30 PM 60.8 °F - 33.8 °F 36% 30.30 in - NW 11.5 mph - N/A   Clear
7:00 PM 59.0 °F - 33.8 °F 39% 30.30 in - NW 10.4 mph - N/A   Clear
7:30 PM 55.4 °F - 33.8 °F 44% 30.30 in - NW 8.1 mph - N/A   Clear
8:00 PM 55.4 °F - 33.8 °F 44% 30.30 in - NW 6.9 mph - N/A   Clear
8:30 PM 51.8 °F - 33.8 °F 50% 30.30 in - WNW 6.9 mph - N/A   Clear
9:00 PM 46.4 °F 43.5 °F 33.8 °F 62% 30.33 in - NW 5.8 mph - N/A   Clear
9:30 PM 51.8 °F - 33.8 °F 50% 30.33 in - North 10.4 mph - N/A   Clear
10:00 PM 51.8 °F - 41.0 °F 67% 30.33 in - NE 6.9 mph - N/A   Clear
10:30 PM 51.8 °F - 42.8 °F 71% 30.33 in - Variable 3.5 mph - N/A   Clear
11:00 PM 48.2 °F - 41.0 °F 76% 30.33 in - East 4.6 mph - N/A   Clear
11:30 PM 46.4 °F 41.9 °F 41.0 °F 81% 30.36 in - ESE 9.2 mph - N/A   Clear